DateTimeUTC,F1_A11,F1_S11,BsB_S11,BsG_S11,BsR_S11,BbsB_S11,BbsG_S11,BbsR_S11,BaB_A11,BaG_A11,BaR_A11,Tu_S11,T_S11,Uu_S11,U_S11,P_S11,T1_A11
2021-03-26T01:00:00Z,00000200,21000000,,,,,,,-000.46,-000.31,-000.45,16.5,24.0,,00.0,0630.9,31.0
2021-03-26T01:01:00Z,00000200,21000000,,,,,,,-000.26,-000.26,-000.17,16.5,24.1,,00.0,0630.9,30.9
2021-03-26T01:02:00Z,00000200,21000000,,,,,,,0000.01,0000.25,0000.38,16.5,24.1,,00.0,0630.9,30.9
2021-03-26T01:03:00Z,00000200,61000000,,,,,,,0002.47,0002.23,0001.38,16.5,24.1,,00.0,0630.9,30.9
2021-03-26T01:04:00Z,00000200,41000000,0005.19,0003.58,0001.79,0000.58,0000.48,0000.23,0002.97,0002.41,0002.10,16.6,23.9,,00.0,0631.7,30.9
2021-03-26T01:05:00Z,00000200,01000000,0004.46,0003.12,0001.96,0000.48,0000.62,0000.47,0002.77,0002.73,0002.05,16.5,23.8,,00.0,0631.8,30.9
2021-03-26T01:06:00Z,00000200,01000000,0004.71,0003.06,0001.89,0000.38,0000.54,0000.42,0003.46,0003.08,0002.51,16.4,23.7,,00.0,0631.8,30.8
2021-03-26T01:07:00Z,00000200,01000000,0004.20,0003.26,0001.75,0000.49,0000.65,0000.28,0003.43,0002.82,0002.28,16.3,23.7,,00.0,0631.8,30.8
2021-03-26T01:08:00Z,00000200,01000000,0004.46,0003.62,0002.05,0000.37,0000.38,0000.45,0002.97,0003.08,0002.22,16.3,23.6,,00.0,0631.8,30.8
2021-03-26T01:09:00Z,00000200,01000000,0005.06,0003.37,0002.04,0000.85,0000.54,0000.35,0003.24,0002.88,0002.32,16.4,23.6,,00.0,0631.8,30.9
2021-03-26T01:10:00Z,00000200,01000000,0004.68,0003.69,0001.90,0000.68,0000.54,0000.12,0002.89,0002.45,0001.87,16.4,23.6,,00.0,0631.8,30.9
2021-03-26T01:11:00Z,00000200,01000000,0005.49,0003.25,0001.86,0000.69,0000.29,0000.16,0002.51,0003.05,0001.88,16.5,23.6,,00.0,0631.8,30.9
2021-03-26T01:12:00Z,00000200,01000000,0004.17,0003.48,0001.91,0000.62,0000.34,0000.38,0003.12,0002.50,0002.39,16.5,23.7,,00.0,0631.8,30.9
2021-03-26T01:13:00Z,00000200,01000000,0004.67,0003.31,0001.93,0000.70,0000.47,0000.46,0002.96,0002.97,0001.91,16.5,23.7,,00.0,0631.8,30.9
2021-03-26T01:14:00Z,00000200,01000000,0004.93,0003.49,0001.80,0000.74,0000.50,0000.48,0003.05,0002.42,0002.42,16.6,23.7,,00.0,0631.8,30.9
2021-03-26T01:15:00Z,00000200,01000000,0004.74,0003.34,0001.88,0000.37,0000.52,0000.42,0003.02,0003.01,0002.17,16.6,23.7,,00.0,0631.8,30.9
2021-03-26T01:16:00Z,00000200,01000000,0004.98,0003.45,0002.19,0000.59,0000.51,0000.40,0003.08,0002.67,0002.22,16.7,23.7,,00.0,0631.8,30.9
2021-03-26T01:17:00Z,00000200,01000000,0004.95,0003.49,0002.07,0000.90,0000.21,0000.81,0003.03,0002.79,0001.79,16.7,23.7,,00.0,0631.8,30.9
2021-03-26T01:18:00Z,00000200,01000000,0004.24,0003.61,0001.79,0000.93,0000.31,0000.43,0003.12,0002.94,0002.60,16.7,23.7,,00.0,0631.8,30.9
2021-03-26T01:19:00Z,00000200,01000000,0005.03,0003.30,0001.92,0000.63,0000.31,0000.52,0003.29,0002.82,0002.00,16.8,23.8,,00.0,0631.8,30.9
2021-03-26T01:20:00Z,00000200,01000000,0004.56,0003.40,0001.83,0000.62,0000.59,0000.18,0002.53,0002.45,0001.92,16.8,23.8,,00.0,0631.8,30.9
2021-03-26T01:21:00Z,00000200,01000000,0005.18,0003.41,0002.06,0000.73,0000.43,0000.34,0002.56,0002.57,0001.88,16.8,23.8,,00.0,0631.8,30.9
2021-03-26T01:22:00Z,00000200,01000000,0004.01,0003.34,0001.89,0000.83,0000.52,0000.57,0003.06,0002.35,0001.97,16.8,23.8,,00.0,0631.8,30.9
2021-03-26T01:23:00Z,00000200,01000000,0004.35,0003.47,0001.78,0000.63,0000.40,0000.34,0002.92,0002.80,0002.35,16.8,23.7,,00.0,0631.8,30.9
2021-03-26T01:24:00Z,00000200,01000000,0004.99,0003.18,0001.75,0000.49,0000.53,0000.39,0002.87,0002.85,0001.83,16.8,23.7,,00.0,0631.8,30.9
2021-03-26T01:25:00Z,00000200,01000000,0005.13,0003.05,0001.68,0000.46,0000.62,0000.41,0002.78,0002.53,0001.75,16.8,23.7,,00.0,0631.8,30.9
2021-03-26T01:26:00Z,00000200,01000000,0004.49,0003.41,0001.89,0000.85,0000.25,0000.31,0003.67,0003.09,0003.27,16.8,23.7,,00.0,0631.8,30.9
2021-03-26T01:27:00Z,00000200,01000000,0004.60,0003.48,0002.02,0000.87,0000.42,0000.67,0003.33,0003.31,0002.24,16.8,23.7,,00.0,0631.8,30.9
2021-03-26T01:28:00Z,00000200,01000000,0004.75,0003.07,0001.98,0000.46,0000.50,0000.51,0003.27,0003.20,0002.49,16.9,23.8,,00.0,0631.8,30.9
2021-03-26T01:29:00Z,00000200,01000000,0004.27,0003.51,0001.96,0001.00,0000.55,0000.36,0003.09,0002.88,0001.83,16.9,23.8,,00.0,0631.8,30.9
2021-03-26T01:30:00Z,00000200,01000000,0004.39,0003.35,0001.81,0000.81,0000.69,0000.36,0003.22,0003.06,0002.39,16.9,23.8,,00.0,0631.8,30.9
2021-03-26T01:31:00Z,00000200,01000000,0004.67,0003.67,0001.58,0000.62,0000.48,0000.36,0003.25,0002.31,0002.20,16.9,23.8,,00.0,0631.8,30.9
2021-03-26T01:32:00Z,00000200,01000000,0004.36,0003.12,0001.88,0000.68,0000.30,0000.55,0003.02,0003.05,0002.21,16.9,23.8,,00.0,0631.8,30.9
2021-03-26T01:33:00Z,00000200,01000000,0004.16,0003.66,0001.97,0000.62,0000.55,0000.44,0003.06,0002.81,0002.36,17.0,23.8,,00.0,0631.8,30.9
2021-03-26T01:34:00Z,00000200,01000000,0004.60,0003.38,0001.77,0000.68,0000.40,0000.48,0003.02,0003.00,0002.21,16.9,23.8,,00.0,0631.8,30.9
2021-03-26T01:35:00Z,00000200,01000000,0004.89,0003.40,0001.73,0000.86,0000.38,0000.46,0003.05,0002.60,0001.90,16.8,23.8,,00.0,0631.8,30.9
2021-03-26T01:36:00Z,00000200,01000000,0004.50,0003.42,0001.66,0000.66,0000.53,0000.40,0002.04,0002.08,0001.39,16.7,23.7,,00.0,0631.8,30.9
2021-03-26T01:37:00Z,00000200,01000000,0004.27,0003.27,0001.77,0000.22,0000.73,0000.30,0002.62,0001.85,0002.02,16.6,23.7,,00.0,0631.8,30.8
2021-03-26T01:38:00Z,00000200,01000000,0004.87,0003.27,0001.93,0000.82,0000.57,0000.72,0003.20,0003.66,0002.32,16.5,23.6,,00.0,0631.8,30.8
2021-03-26T01:39:00Z,00000200,01000000,0004.38,0003.37,0001.86,0000.69,0000.50,0000.45,0003.67,0003.03,0002.20,16.5,23.6,,00.0,0631.8,30.8
2021-03-26T01:40:00Z,00000200,01000000,0003.99,0003.26,0001.93,0000.65,0000.31,0000.38,0003.18,0003.01,0002.69,16.5,23.6,,00.0,0631.8,30.9
2021-03-26T01:41:00Z,00000200,01000000,0004.14,0003.47,0001.88,0000.88,0000.42,0000.45,0003.22,0003.09,0002.44,16.5,23.6,,00.0,0631.8,30.9
2021-03-26T01:42:00Z,00000200,01000000,0004.46,0003.01,0001.73,0000.17,0000.66,0000.71,0002.89,0002.45,0002.26,16.6,23.6,,00.0,0631.8,30.9
2021-03-26T01:43:00Z,00000200,01000000,0004.44,0003.15,0001.75,0000.55,0000.37,0000.46,0002.85,0002.78,0001.77,16.6,23.6,,00.0,0631.8,30.9
2021-03-26T01:44:00Z,00000200,01000000,0004.37,0003.17,0001.84,0000.86,0000.56,0000.50,0002.90,0002.79,0002.41,16.7,23.6,,00.0,0631.8,30.9
2021-03-26T01:45:00Z,00000200,01000000,0005.05,0003.05,0001.78,0000.60,0000.50,0000.34,0003.16,0002.41,0001.64,16.7,23.7,,00.0,0631.8,30.9
2021-03-26T01:46:00Z,00000200,01000000,0004.67,0003.14,0001.91,0000.58,0000.28,0000.54,0002.78,0002.79,0002.21,16.7,23.7,,00.0,0631.8,30.9
2021-03-26T01:47:00Z,00000200,01000000,0004.04,0003.26,0001.94,0000.86,0000.37,0000.69,0002.98,0002.55,0001.96,16.8,23.7,,00.0,0631.8,30.9
2021-03-26T01:48:00Z,00000200,01000000,0005.02,0003.61,0001.79,0000.58,0000.46,0000.46,0002.43,0002.90,0002.11,16.8,23.7,,00.0,0631.8,30.9
2021-03-26T01:49:00Z,00000200,01000000,0004.77,0002.85,0001.38,0000.51,0000.41,0000.41,0003.32,0002.40,0002.11,16.8,23.7,,00.0,0631.8,30.9
2021-03-26T01:50:00Z,00000200,01000000,0004.21,0003.02,0001.99,0000.09,0000.36,0000.55,0002.15,0002.34,0001.75,16.8,23.7,,00.0,0631.8,30.9
2021-03-26T01:51:00Z,00000200,01000000,0003.98,0003.09,0001.54,0000.34,0000.37,0000.42,0002.29,0001.90,0001.61,16.8,23.7,,00.0,0631.8,30.9
2021-03-26T01:52:00Z,00000200,01000000,0005.41,0003.16,0001.76,0000.71,0000.62,0000.57,0002.20,0001.88,0001.36,16.8,23.7,,00.0,0631.8,30.9
2021-03-26T01:53:00Z,00000200,01000000,0004.77,0002.84,0001.59,0000.38,0000.39,0000.06,0002.80,0002.57,0001.79,16.7,23.7,,00.0,0631.8,30.9
2021-03-26T01:54:00Z,00000200,01000000,0004.48,0003.02,0001.74,0000.86,0000.46,0000.60,0002.47,0002.44,0002.15,16.7,23.7,,00.0,0631.8,30.9
2021-03-26T01:55:00Z,00000200,01000000,0004.77,0003.28,0002.08,0000.49,0000.42,0000.49,0003.09,0002.90,0002.24,16.7,23.6,,00.0,0631.8,30.9
2021-03-26T01:56:00Z,00000200,01000000,0004.16,0003.27,0001.68,0000.59,0000.26,0000.39,0003.39,0002.84,0002.25,16.7,23.7,,00.0,0631.8,30.9
2021-03-26T01:57:00Z,00000200,41000000,,,,,,,0001.97,0002.56,0002.04,16.8,23.7,,00.0,0631.8,30.9
2021-03-26T01:58:00Z,00000200,61000000,,,,,,,0000.18,-000.36,-000.21,16.4,23.9,,00.0,0630.9,30.9
2021-03-26T01:59:00Z,00000200,21000000,,,,,,,0000.04,-000.10,0000.05,16.4,24.0,,00.0,0630.8,30.9
